Location: La Vergne
(36.0160°N, 86.5820°W)
Time: 00:33:27
(UTC-05:00)

Resurs 1-3 - Pass Details

Date: 24 September 2017
Orbit: 630 x 633 km, 98.1° (Epoch: 18 October)

Event Time Altitude Azimuth Distance (km) Brightness Sun altitude
Exits shadow 20:28:08 64° 144° (SE) 699 3.5 -22.5°
Maximum altitude 20:28:45 80° 76° (ENE) 647 3.4 -22.6°
Drops below altitude 10° 20:33:08 10° 350° (N) 2,019 6.5 -23.5°
Sets 20:35:21 0° 349° (N) 2,931 7.4 -23.9°
